Tracking 20232 objects as of 18-Jan-2020
HD Live streaming from Space Station
objects crossing your sky now

COSMOS 2251 DEB

Track COSMOS 2251 DEB now!
10-day predictions


NORAD ID: 33907
Int'l Code: 1993-036DL
Perigee: 752.0 km
Apogee: 979.3 km
Inclination: 74.1 °
Period: 102.1 minutes
Semi major axis: 7236 km
RCS: 0.033 m2 (small)
Launch date: June 16, 1993
Source: Commonwealth of Independent States (former USSR) (CIS)
Launch site: PLESETSK MISSILE AND SPACE COMPLEX (PKMTR)

Note: This is SATELLITE DEBRIS
aabbcc
Your satellite tracking list
Your tracking list is empty




NASA's NSSDC Master Catalog

Two Line Element Set (TLE):
1 33907U 93036DL  20018.07165147 +.00000873 +00000-0 +45106-3 0  9992
2 33907 074.0537 259.7261 0157058 127.2709 352.3091 14.10244912560615
Source of the keplerian elements: AFSPC